Alpena, MI

6:47 PM EST on December 04, 2016 (GMT -0500)
Alpena County Regional

Weather History for KAPN - October, 2011

Change the Weather History Date:

Monday, October 3, 2011

  Actual Average Record
Temperature  
Mean Temperature 54 °F 51 °F  
Max Temperature 64 °F 62 °F 84 °F (2005)
Min Temperature 43 °F 40 °F 21 °F (1974)
Degree Days  
Heating Degree Days 11 14  
Month to date heating degree days 52 41  
Since 1 July heating degree days 322 398  
Cooling Degree Days 0 0  
Month to date cooling degree days 0 0  
Year to date cooling degree days 399 289  
Growing Degree Days 4 (Base 50)    
Moisture  
Dew Point 41 °F    
Average Humidity 67    
Maximum Humidity 100    
Minimum Humidity 34    
Precipitation  
Precipitation 0.00 in 0.10 in 1.30 in (1954)
Month to date precipitation 0.00 0.29  
Year to date precipitation 29.20 21.99  
Snow  
Snow 0.00 in 0.00 in 0.40 in (1945)
Month to date snowfall 0.0 0.0  
Since 1 July snowfall 0.0 0.0  
Snow Depth 0.00 in    
Sea Level Pressure  
Sea Level Pressure 30.19 in    
Wind  
Wind Speed 5 mph (NNW)    
Max Wind Speed 15 mph    
Max Gust Speed 18 mph    
Visibility 10 miles    
Events      
T = Trace of Precipitation, MM = Missing Value Source: NWS Daily Summary

Daily Weather History Graph

Daily Weather History Graph

Search for Another Location

Airport or City:

Trip Planner

Search our weather history database for the weather conditions in past years. The results will help you decide how hot, cold, wet, or windy it might be!

Date:

Astronomy

Oct. 03, 2011 Rise Set
Actual Time 7:34 AM EDT 7:11 PM EDT
Civil Twilight 7:05 AM EDT 7:40 PM EDT
Nautical Twilight 6:31 AM EDT 8:14 PM EDT
Astronomical Twilight 5:56 AM EDT 8:49 PM EDT
Moon 2:45 PM EDT (10/3) 11:59 PM EDT (10/3)
Length of Visible Light 12h 35m
Length of Day
11h 36m
Waxing Crescent, 45% of the Moon is Illuminated
Oct 3
Waxing Crescent
Oct 3
First Quarter
Oct 11
Full
Oct 19
Last Quarter
Oct 26
New

Hourly Weather History & Observations

Time (EDT) Temp. Windchill Dew Point Humidity Pressure Visibility Wind Dir Wind Speed Gust Speed Precip Events Conditions
12:54 AM 44.1 °F 42.5 °F 42.1 °F 93% 30.14 in 10.0 mi NNW 3.5 mph - N/A   Clear
1:54 AM 44.1 °F 41.5 °F 42.1 °F 93% 30.14 in 10.0 mi NW 4.6 mph - N/A   Clear
2:54 AM 44.1 °F 41.5 °F 43.0 °F 96% 30.14 in 10.0 mi NW 4.6 mph - N/A   Clear
3:54 AM 44.1 °F 42.5 °F 42.1 °F 93% 30.13 in 10.0 mi NW 3.5 mph - N/A   Clear
4:54 AM 45.0 °F - 43.0 °F 93% 30.14 in 10.0 mi Calm Calm - N/A   Clear
5:54 AM 44.1 °F - 42.1 °F 93% 30.15 in 10.0 mi Calm Calm - N/A   Clear
6:54 AM 44.1 °F 41.5 °F 42.1 °F 93% 30.16 in 10.0 mi WNW 4.6 mph - N/A   Clear
7:54 AM 43.0 °F 41.3 °F 42.1 °F 97% 30.19 in 10.0 mi NW 3.5 mph - N/A   Clear
8:54 AM 48.9 °F - 46.0 °F 90% 30.20 in 10.0 mi NNW 8.1 mph - N/A   Clear
9:54 AM 54.0 °F - 46.0 °F 75% 30.21 in 10.0 mi NNW 9.2 mph - N/A   Clear
10:54 AM 57.9 °F - 39.9 °F 51% 30.21 in 10.0 mi North 11.5 mph - N/A   Clear
11:54 AM 61.0 °F - 37.0 °F 41% 30.21 in 10.0 mi North 12.7 mph - N/A   Clear
12:54 PM 62.1 °F - 35.1 °F 37% 30.22 in 10.0 mi NNE 10.4 mph - N/A   Clear
1:54 PM 63.0 °F - 33.1 °F 33% 30.21 in 10.0 mi NE 8.1 mph 17.3 mph N/A   Clear
2:54 PM 63.0 °F - 34.0 °F 34% 30.20 in 10.0 mi North 10.4 mph - N/A   Clear
3:54 PM 64.0 °F - 37.0 °F 37% 30.19 in 10.0 mi North 11.5 mph - N/A   Clear
4:54 PM 64.0 °F - 39.9 °F 41% 30.19 in 10.0 mi North 10.4 mph - N/A   Clear
5:54 PM 63.0 °F - 42.1 °F 46% 30.20 in 10.0 mi NNW 8.1 mph - N/A   Clear
6:54 PM 59.0 °F - 43.0 °F 55% 30.20 in 10.0 mi NNW 4.6 mph - N/A   Clear
7:54 PM 50.0 °F - 44.1 °F 80% 30.21 in 10.0 mi Calm Calm - N/A   Clear
8:54 PM 46.9 °F - 43.0 °F 86% 30.21 in 10.0 mi Calm Calm - N/A   Clear
9:54 PM 50.0 °F - 44.1 °F 80% 30.22 in 10.0 mi Calm Calm - N/A   Clear
10:54 PM 48.0 °F - 43.0 °F 83% 30.22 in 10.0 mi Calm Calm - N/A   Clear
11:54 PM 48.0 °F - 44.1 °F 86% 30.23 in 10.0 mi Calm Calm - N/A   Clear